Location: Unspecified
(0.0000°N, 0.0000°E)
Time: 21:32:07
(UTC+00:00)

N. Korean satellite - Pass Details

Date: 04 July 2020
Orbit: 455 x 503 km, 97.2° (Epoch: 28 September)

Event Time Altitude Azimuth Distance (km) Brightness Sun altitude
Rises 05:25:21 0° 3° (N) 2,457 10.5 -9.0°
Reaches altitude 10° 05:27:25 10° 359° (N) 1,585 9.5 -8.5°
Maximum altitude 05:30:43 53° 281° (W) 563 6.6 -7.8°
Drops below altitude 10° 05:34:03 10° 203° (SSW) 1,591 8.8 -7.0°
Enters shadow 05:36:51 -3° 197° (SSW) 2,779 10.0 -6.4°
